This demonstration page uses our WeatherBlox Daily Observations layout. Learn more.

Left ArrowRight Arrow

Hourly Observations for August 31, 2016

Temp ( °F °C ) Dew Point ( °F °C ) Humidity (%) Winds ( mph kmh ) Pressure ( in mb ) Visibility ( mi km ) Precip ( " mm )
12:14 am 00:14 Mostly Cloudy 70 21 70 21 100 100 SE 3 6 30.06 1018 5 8.0467 N/A
12:35 am 00:35 Partly Cloudy 70 21 70 21 100 100 Calm 30.06 1018 5 8.0467 N/A
12:55 am 00:55 Clear 70 21 68 20 94 94 S 3 6 30.06 1018 5 8.0467 N/A
1:14 am 01:14 Clear 70 21 70 21 100 100 S 5 7 30.06 1018 5 8.0467 N/A
1:35 am 01:35 Clear 70 21 68 20 94 94 SSW 5 7 30.06 1018 5 8.0467 N/A
1:54 am 01:54 Clear 70 21 68 20 94 94 SSW 5 7 30.06 1018 5 8.0467 N/A
2:14 am 02:14 Clear 70 21 68 20 94 94 SSW 3 6 30.06 1018 7 11.26538 N/A
2:35 am 02:35 Clear 68 20 68 20 100 100 Calm 30.03 1017 5 8.0467 N/A
2:54 am 02:54 Clear 68 20 68 20 100 100 Calm 30.03 1017 4 6.43736 N/A
3:14 am 03:14 Clear 68 20 68 20 100 100 Calm 30.03 1017 4 6.43736 N/A
3:35 am 03:35 Clear 68 20 68 20 100 100 Calm 30.03 1017 4 6.43736 N/A
3:54 am 03:54 Clear 70 21 68 20 94 94 Calm 30 1016 5 8.0467 N/A
4:14 am 04:14 Clear 68 20 68 20 100 100 Calm 30.03 1017 4 6.43736 N/A
4:35 am 04:35 Clear 68 20 68 20 100 100 Calm 30.03 1017 2.5 4.02335 N/A
4:54 am 04:54 Mostly Cloudy 70 21 68 20 94 94 Calm 30 1016 4 6.43736 N/A
5:14 am 05:14 Cloudy 70 21 70 21 100 100 Calm 30 1016 1 1.60934 N/A
5:35 am 05:35 Cloudy 70 21 70 21 100 100 Calm 30 1016 0.25 0.402335 N/A
5:54 am 05:54 Cloudy 70 21 68 20 94 94 Calm 30 1016 0.25 0.402335 N/A
6:14 am 06:14 Cloudy 68 20 68 20 100 100 Calm 30.03 1017 0.25 0.402335 N/A
6:35 am 06:35 Cloudy 68 20 68 20 100 100 Calm 30.03 1017 0.25 0.402335 N/A
6:54 am 06:54 Mostly Cloudy 68 20 68 20 100 100 Calm 30.03 1017 0.25 0.402335 N/A
7:15 am 07:15 Mostly Cloudy 68 20 68 20 100 100 Calm 30.03 1017 0.25 0.402335 N/A
7:35 am 07:35 Mostly Cloudy 68 20 68 20 100 100 Calm 30.03 1017 0.5 0.80467 N/A
7:54 am 07:54 Mostly Cloudy 68 20 68 20 100 100 Calm 30.03 1017 1.5 2.41401 N/A
8:15 am 08:15 Mostly Cloudy 68 20 68 20 100 100 Calm 30.03 1017 1 1.60934 N/A
8:35 am 08:35 Sunny 70 21 70 21 100 100 Calm 30 1016 2.5 4.02335 N/A
8:54 am 08:54 Partly Cloudy 72 22 70 21 94 94 WNW 3 6 30 1016 7 11.26538 N/A
9:15 am 09:15 Mostly Cloudy 73 23 70 21 89 89 WNW 5 7 30 1016 5 8.0467 N/A
9:35 am 09:35 Mostly Cloudy 73 23 70 21 89 89 Calm 30 1016 7 11.26538 N/A
9:54 am 09:54 Partly Cloudy 75 24 72 22 89 89 NNW 3 6 30 1016 7 11.26538 N/A
10:15 am 10:15 Mostly Cloudy 75 24 72 22 89 89 Calm 30 1016 10 16.0934 N/A
10:34 am 10:34 Mostly Cloudy 77 25 72 22 83 83 Calm 30 1016 10 16.0934 N/A
10:54 am 10:54 Partly Cloudy 77 25 72 22 83 83 Calm 30 1016 10 16.0934 N/A
11:15 am 11:15 Partly Cloudy 77 25 72 22 83 83 Calm 30 1016 10 16.0934 N/A
11:34 am 11:34 Mostly Cloudy 79 26 72 22 79 79 NNW 5 7 30 1016 10 16.0934 N/A
11:54 am 11:54 Mostly Cloudy 79 26 72 22 79 79 NNW 6 9 30 1016 10 16.0934 N/A
12:15 pm 12:15 Partly Cloudy 79 26 72 22 79 79 WNW 3 6 30 1016 10 16.0934 N/A
12:34 pm 12:34 Partly Cloudy 81 27 72 22 74 74 N 3 6 30 1016 10 16.0934 N/A
12:54 pm 12:54 Partly Cloudy 82 28 72 22 70 70 NNW 6 9 29.97 1015 10 16.0934 N/A
1:14 pm 13:14 Partly Cloudy 82 28 70 21 66 66 NNW 8 13 29.97 1015 10 16.0934 N/A
1:34 pm 13:34 Partly Cloudy 81 27 70 21 70 70 NW 5 7 29.97 1015 10 16.0934 N/A
1:55 pm 13:55 Partly Cloudy 82 28 70 21 66 66 NNW 7 11 29.97 1015 10 16.0934 N/A
2:14 pm 14:14 Partly Cloudy 82 28 70 21 66 66 NNW 9 15 29.97 1015 10 16.0934 N/A
2:35 pm 14:35 Partly Cloudy 81 27 70 21 70 70 NNW 13 20 29.97 1015 10 16.0934 N/A
2:55 pm 14:55 Partly Cloudy 82 28 70 21 66 66 NNW 9 15 29.97 1015 10 16.0934 N/A
3:14 pm 15:14 Partly Cloudy 82 28 70 21 66 66 N 10 17 29.97 1015 10 16.0934 N/A
3:35 pm 15:35 Partly Cloudy 82 28 70 21 66 66 N 10 17 29.94 1014 10 16.0934 N/A
3:54 pm 15:54 Sunny 82 28 70 21 66 66 N 12 19 29.94 1014 10 16.0934 N/A
4:14 pm 16:14 Sunny 82 28 70 21 66 66 N 10 17 29.94 1014 10 16.0934 N/A
4:35 pm 16:35 Partly Cloudy 82 28 70 21 66 66 N 12 19 29.94 1014 10 16.0934 N/A
4:54 pm 16:54 Partly Cloudy 81 27 70 21 70 70 N 9 15 29.94 1014 10 16.0934 N/A
5:14 pm 17:14 Sunny 82 28 70 21 66 66 N 8 13 29.94 1014 10 16.0934 N/A
5:35 pm 17:35 Sunny 81 27 70 21 70 70 N 8 13 29.94 1014 10 16.0934 N/A
5:54 pm 17:54 Partly Cloudy 81 27 72 22 74 74 N 8 13 29.94 1014 10 16.0934 N/A
6:14 pm 18:14 Sunny 79 26 70 21 74 74 N 6 9 29.94 1014 10 16.0934 N/A
6:35 pm 18:35 Partly Cloudy 77 25 66 19 69 69 N 15 24 29.97 1015 10 16.0934 N/A
6:54 pm 18:54 Partly Cloudy 75 24 66 19 74 74 N 10 17 29.97 1015 10 16.0934 N/A
7:14 pm 19:14 Partly Cloudy 73 23 68 20 83 83 N 7 11 29.97 1015 10 16.0934 N/A
7:35 pm 19:35 Partly Cloudy 73 23 68 20 83 83 NNE 6 9 29.97 1015 10 16.0934 N/A
7:54 pm 19:54 Sunny 73 23 68 20 83 83 N 6 9 29.97 1015 10 16.0934 N/A
8:15 pm 20:15 Sunny 73 23 68 20 83 83 N 7 11 29.97 1015 10 16.0934 N/A
8:35 pm 20:35 Clear 73 23 68 20 83 83 N 9 15 29.97 1015 10 16.0934 N/A
8:54 pm 20:54 Clear 72 22 68 20 88 88 N 10 17 29.97 1015 10 16.0934 N/A
9:15 pm 21:15 Clear 72 22 66 19 83 83 N 10 17 29.97 1015 10 16.0934 N/A
9:35 pm 21:35 Clear 72 22 66 19 83 83 N 9 15 30 1016 10 16.0934 N/A
9:54 pm 21:54 Partly Cloudy 70 21 66 19 88 88 N 8 13 30 1016 10 16.0934 N/A
10:15 pm 22:15 Clear 68 20 63 17 83 83 N 9 15 30.03 1017 10 16.0934 N/A
10:35 pm 22:35 Clear 68 20 61 16 78 78 N 8 13 30.03 1017 10 16.0934 N/A
10:54 pm 22:54 Clear 68 20 61 16 78 78 N 9 15 30.03 1017 10 16.0934 N/A
11:15 pm 23:15 Clear 66 19 61 16 83 83 N 7 11 30.03 1017 10 16.0934 N/A
11:35 pm 23:35 Partly Cloudy 66 19 61 16 83 83 N 9 15 30.03 1017 10 16.0934 N/A
11:54 pm 23:54 Partly Cloudy 64 18 61 16 88 88 N 8 13 30.03 1017 10 16.0934 N/A

Powered by AerisWeather